sat.trackr.live / text

‹ back to catalog

TWILIGHT-1 OBJECT B

NORAD 67364 · 2026-004B

PAYLOAD ACTIVE UNKNOWN

§ Identity

Operator
Country
TBD
Launch date
2026-01-11
Launch site
AFWTR
Launch vehicle
Mass (kg)
RCS (m²)

Purposes: earth_obs

External: N2YO · Heavens-Above · Gunter

§ Orbital elements

Epoch: 2026-05-24T22:53:16.706112Z

Period
96.80 min
Inclination
97.8060°
Eccentricity
0.0008039
Mean motion
14.87607705 rev/d
Perigee alt
599.8 km
Apogee alt
611.0 km
Semi-major
6,983.5 km
B*
1.6537e-4
RAAN
143.8967°
Arg perigee
196.3107°
Mean anomaly
163.7852°
Rev number
1,983

§ Raw data

TWILIGHT-1 OBJECT B1 67364U 26004B   26144.95366558  .00001449  00000+0  16537-3 0  99942 67364  97.8060 143.8967 0008039 196.3107 163.7852 14.87607705 19831

JSON: /api/v1/satellites/67364 · /tle

For live sub-satellite position, see the globe view (requires WebGL).

§ Visibility from observer

Set your observer location to see the next 7 days of passes ≥ 10°. The values pass through the URL so the page stays shareable.

No JS? Fill the form by hand. The geolocation button needs JavaScript.